User: anonymous   Login
Location: Isola Pescaroli
(45.0500°N, 10.1667°E)
Time: 12:22:10
(UTC+00:00)
Language:

Cosmos 192 - Orbit

View from above orbital plane
View from above orbital plane
View from above satellite
View from above satellite

Ground track
Ground track

The orbit data is extracted from the following two-line orbital elements,

1 03047U 67116A   21137.91380744  .00000031  00000-0  13852-4 0  9992
2 03047  74.0114 302.7113 0008843 211.8647 148.1982 14.55678366828374
Epoch (UTC): 17 May 2021 21:55:52
Eccentricity: 0.0008843
inclination: 74.0114°
perigee height: 701 km
apogee height: 713 km
right ascension of ascending node: 302.7113°
argument of perigee: 211.8647°
revolutions per day: 14.55678366
mean anomaly at epoch: 148.1982°
orbit number at epoch: 82837

The dashed part of the orbit path shows where the satellite is in the earth's shadow,  

DLR